Rockford, IL

9:50 AM CST on December 08, 2016 (GMT -0600)
Greater Rockford

Weather History for KRFD - June, 2013

Change the Weather History Date:

Friday, June 28, 2013

  Actual Average Record
Temperature  
Mean Temperature 74 °F 73 °F  
Max Temperature 82 °F 84 °F 103 °F (1934)
Min Temperature 65 °F 62 °F 43 °F (1925)
Degree Days  
Heating Degree Days 0 0  
Month to date heating degree days 34 29  
Since 1 June heating degree days 34 29  
Since 1 July heating degree days 6578 6567  
Cooling Degree Days 9 8  
Month to date cooling degree days 162 158  
Year to date cooling degree days 254 213  
Since 1 June cooling degree days 162 158  
Growing Degree Days 24 (Base 50)    
Moisture  
Dew Point 61 °F    
Average Humidity 71    
Maximum Humidity 93    
Minimum Humidity 49    
Precipitation  
Precipitation 0.09 in 0.14 in 2.15 in (1929)
Month to date precipitation 6.98 4.39  
Year to date precipitation 26.42 16.86  
Snow  
Snow 0.00 in 0.00 in 0.00 in ()
Month to date snowfall 0.0 0.0  
Since 1 June snowfall 0.0 0.0  
Since 1 July snowfall 40.5 36.7  
Snow Depth 0.00 in    
Sea Level Pressure  
Sea Level Pressure 29.69 in    
Wind  
Wind Speed 11 mph (NW)    
Max Wind Speed 26 mph    
Max Gust Speed 36 mph    
Visibility 10 miles    
Events Rain    
T = Trace of Precipitation, MM = Missing Value Source: NWS Daily Summary

Daily Weather History Graph

Daily Weather History Graph

Search for Another Location

Airport or City:

Trip Planner

Search our weather history database for the weather conditions in past years. The results will help you decide how hot, cold, wet, or windy it might be!

Date:

Astronomy

Jun. 28, 2013 Rise Set
Actual Time 5:22 AM CDT 8:36 PM CDT
Civil Twilight 4:48 AM CDT 9:11 PM CDT
Nautical Twilight 4:03 AM CDT 9:55 PM CDT
Astronomical Twilight 3:09 AM CDT 10:49 PM CDT
Moon 11:57 PM CDT (6/28) 11:37 AM CDT (6/28)
Length of Visible Light 16h 23m
Length of Day
15h 14m
Waning Gibbous, 66% of the Moon is Illuminated
Jun 28
Waning Gibbous
Jun 29
Last Quarter
Jul 8
New
Jul 15
First Quarter
Jul 22
Full

Hourly Weather History & Observations

Time (CDT) Temp. Heat Index Dew Point Humidity Pressure Visibility Wind Dir Wind Speed Gust Speed Precip Events Conditions
12:54 AM 71.1 °F - 61.0 °F 70% 29.75 in 10.0 mi WNW 9.2 mph - N/A   Partly Cloudy
1:54 AM 71.1 °F - 59.0 °F 66% 29.73 in 10.0 mi WNW 10.4 mph - N/A   Partly Cloudy
2:54 AM 70.0 °F - 59.0 °F 68% 29.73 in 10.0 mi WNW 8.1 mph - N/A   Clear
3:54 AM 66.9 °F - 59.0 °F 76% 29.72 in 10.0 mi Calm Calm - N/A   Clear
4:54 AM 66.0 °F - 59.0 °F 78% 29.72 in 10.0 mi NW 4.6 mph - N/A   Scattered Clouds
5:54 AM 68.0 °F - 59.0 °F 73% 29.71 in 10.0 mi WNW 11.5 mph - N/A   Scattered Clouds
6:54 AM 70.0 °F - 59.0 °F 68% 29.71 in 10.0 mi NW 11.5 mph - N/A   Partly Cloudy
7:54 AM 73.0 °F - 60.1 °F 64% 29.72 in 10.0 mi NNW 10.4 mph 18.4 mph N/A   Clear
8:54 AM 75.9 °F - 60.1 °F 58% 29.72 in 10.0 mi NW 10.4 mph - N/A   Clear
9:54 AM 77.0 °F - 60.1 °F 56% 29.71 in 10.0 mi NW 12.7 mph - N/A   Clear
10:54 AM 79.0 °F - 59.0 °F 50% 29.70 in 10.0 mi NW 13.8 mph - N/A   Partly Cloudy
11:54 AM 80.1 °F 80.9 °F 60.1 °F 50% 29.69 in 10.0 mi WNW 16.1 mph 21.9 mph N/A   Scattered Clouds
12:54 PM 81.0 °F 81.3 °F 59.0 °F 47% 29.68 in 10.0 mi NW 15.0 mph 27.6 mph N/A   Mostly Cloudy
1:54 PM 77.0 °F - 64.9 °F 66% 29.66 in 10.0 mi NW 6.9 mph - 0.08 in   Mostly Cloudy
2:54 PM 78.1 °F - 64.0 °F 62% 29.65 in 10.0 mi NNW 10.4 mph - 0.00 in   Mostly Cloudy
3:54 PM 77.0 °F - 59.0 °F 54% 29.64 in 10.0 mi NW 21.9 mph 27.6 mph N/A   Overcast
4:54 PM 75.0 °F - 64.0 °F 69% 29.65 in 10.0 mi NNW 15.0 mph - 0.00 in   Mostly Cloudy
5:54 PM 75.9 °F - 62.1 °F 62% 29.65 in 10.0 mi NW 16.1 mph 25.3 mph N/A   Scattered Clouds
6:54 PM 75.9 °F - 62.1 °F 62% 29.65 in 10.0 mi NNW 18.4 mph 25.3 mph N/A   Mostly Cloudy
7:54 PM 69.1 °F - 63.0 °F 81% 29.67 in 10.0 mi NNW 8.1 mph - 0.00 in   Mostly Cloudy
8:54 PM 68.0 °F - 64.9 °F 90% 29.66 in 10.0 mi NNW 9.2 mph - 0.00 in Rain Light Rain
9:54 PM 66.9 °F - 64.0 °F 90% 29.67 in 10.0 mi NW 5.8 mph - 0.01 in   Mostly Cloudy
10:54 PM 66.9 °F - 64.0 °F 90% 29.65 in 10.0 mi NNW 5.8 mph - N/A   Mostly Cloudy
11:54 PM 66.9 °F - 64.0 °F 90% 29.64 in 10.0 mi NNW 8.1 mph - N/A   Mostly Cloudy